Flag for Mexico Weather past 2 weeks in Playa del Carmen, Quintana Roo, Mexico

Now
84 °F

Partly sunny.


Feels Like: 92 °F
Forecast: N/A
Wind: 9 mph from Southeast

Location: Cozumel Civ / Mil

Current Time: Sep 1, 2014 at 4:27:45 PM

Latest Report: Sep 1, 2014 at 3:54 PM


Visibility: 8 mi

Pressure: 29.98 "Hg

Humidity: 74%

Dew point: 75 °F

Location of Playa del CarmenLocation

Historic Weather in Playa del Carmen — Graph

°F

Playa del Carmen temperature yesterday

Maximum temperature yesterday: 81 °F (at 12:41 PM)
Minimum temperature yesterday: 72 °F (at 5:48 AM)
Average temperature yesterday: 75 °F

Past Weeks' High & Low Weather Summary

 TemperatureHumidityPressure
High97 °F (Aug 20, 10:46 AM)100% (Aug 18, 2:40 AM)30.09 "Hg (Aug 18, 2:40 AM)
Low70 °F (Aug 19, 3:48 AM)52% (Aug 27, 3:55 PM)29.78 "Hg (Aug 25, 6:51 PM)
Average80 °F88%29.93 "Hg
* Reported Aug 17 2:44 PM — Sep 1 2:52 PM, Playa del Carmen, Weather by CustomWeather, © 2014

Note: Actual official high and low records may vary slightly from our data, if they occured in-between our weather recording intervals... More about our weather records

Advertising

Playa del Carmen weather history for previous 24 hours

 ConditionsComfort  
Time TempWeatherWind HumidityBarometerVisibility
2:52 PM
Sep 1
84 °FMostly cloudy.13 mph74%29.97 "Hg7 mi
1:41 PM84 °FCloudy.14 mph79%29.99 "Hg7 mi
12:49 PM84 °FCloudy.17 mph79%30.00 "Hg7 mi
11:45 AM82 °FCloudy.12 mph84%30.02 "Hg7 mi
10:41 AM82 °FCloudy.14 mph84%30.02 "Hg7 mi
9:43 AM84 °FCloudy.8 mph79%30.04 "Hg7 mi
8:42 AM81 °FCloudy.8 mph89%29.99 "Hg7 mi
7:43 AM79 °FMore clouds than sun.7 mph94%29.97 "Hg7 mi
6:53 AM79 °FMostly cloudy.6 mph89%29.92 "Hg7 mi
5:44 AM79 °FMostly cloudy.8 mph89%29.94 "Hg7 mi
4:46 AM79 °FMostly cloudy.8 mph89%29.93 "Hg7 mi
4:16 AM77 °FMostly cloudy.9 mph94%29.96 "Hg7 mi
2:48 AM77 °FOvercast.10 mph100%29.93 "Hg7 mi
1:42 AM75 °FOvercast.9 mph100%29.91 "Hg7 mi
12:47 AM73 °FLight rain. Overcast.6 mph100%29.91 "Hg6 mi
11:40 PM
Aug 31
72 °FMostly cloudy.No wind100%29.96 "Hg7 mi
10:45 PM72 °FMostly cloudy.5 mph100%29.95 "Hg7 mi
9:51 PM72 °FMostly cloudy.6 mph100%29.98 "Hg7 mi
8:48 PM72 °FOvercast.13 mph100%29.95 "Hg5 mi
7:53 PM72 °FCloudy.3 mph100%29.95 "Hg6 mi
6:47 PM79 °FCloudy.8 mph84%29.91 "Hg7 mi
5:53 PM81 °FMostly cloudy.12 mph79%29.91 "Hg7 mi
4:41 PM81 °FMostly cloudy.13 mph74%29.92 "Hg7 mi
Weather by CustomWeather, © 2014

See weather overviewHow to use our weather pages